This is the latest recevied weather packets stored in our database for station/object SV2RCS-13. If no packets are shown the sender has not sent any weather packets the latest 10 day(s).
| Time | Temp. | Humidity | Pressure | Rain* | Wind** | Luminosity | Snow |
|---|---|---|---|---|---|---|---|
| 1777277815 | 23.89° C | 17% | 1017 hPa | - | - | - | - |
| 1777277215 | 23.89° C | 18% | 1017 hPa | - | - | - | - |
| 1777276618 | 23.33° C | 18% | 1017.2 hPa | - | - | - | - |
| 1777276015 | 22.22° C | 17% | 1017.3 hPa | - | - | - | - |
| 1777275415 | 22.78° C | 18% | 1017.3 hPa | - | - | - | - |
| 1777274815 | 22.78° C | 18% | 1017.3 hPa | - | - | - | - |
| 1777274215 | 22.22° C | 18% | 1017.4 hPa | - | - | - | - |
| 1777273615 | 22.22° C | 18% | 1017.4 hPa | - | - | - | - |
| 1777273015 | 21.11° C | 18% | 1017.6 hPa | - | - | - | - |
| 1777272416 | 22.22° C | 18% | 1017.3 hPa | - | - | - | - |
| 1777271816 | 21.67° C | 18% | 1017.6 hPa | - | - | - | - |
| 1777271215 | 20.56° C | 18% | 1017.6 hPa | - | - | - | - |
| 1777270616 | 21.11° C | 18% | 1017.5 hPa | - | - | - | - |
| 1777270015 | 21.11° C | 18% | 1017.5 hPa | - | - | - | - |
| 1777269415 | 21.11° C | 18% | 1017.6 hPa | - | - | - | - |
| 1777268815 | 20.56° C | 18% | 1017.9 hPa | - | - | - | - |
| 1777268215 | 22.78° C | 16% | 1017.9 hPa | - | - | - | - |
| 1777267615 | 21.11° C | 17% | 1017.8 hPa | - | - | - | - |
| 1777267015 | 19.44° C | 18% | 1017.7 hPa | - | - | - | - |
| 1777266415 | 19.44° C | 20% | 1017.8 hPa | - | - | - | - |
| 1777265815 | 18.89° C | 18% | 1018.1 hPa | - | - | - | - |
| 1777265218 | 20° C | 18% | 1018 hPa | - | - | - | - |
| 1777264615 | 19.44° C | 19% | 1018 hPa | - | - | - | - |
| 1777264015 | 17.22° C | 24% | 1018.1 hPa | - | - | - | - |
| 1777263414 | 16.67° C | 24% | 1018.3 hPa | - | - | - | - |
* Rain since midnight (hover to see other rain measurements)
** Current wind speed in m/s (hover to see current wind gust speed)